Content
SEND FEEDBACK

Daily
Averages
Monthly
Summary
United States of America

ST. LOUIS - GATEWAY ARCH, MISSOURI


Home > North America > United States > Missouri
Elevation: 450 feet     Latitude: 38 37N     Longitude: 090 11W

WEATHER
 
SELECT A DAY
Number of Records: 186,092;   Date Range: 1/1/95 - 7/29/14
 
SHARE

PRINT THIS DATA

[ ← Previous Day ]
WEATHER ALMANAC - JANUARY 31, 2013
[ Next Day → ]
[ °C ]   °F
Weather ElementAverageHighLow
Temperature26.5 °F33.1 °F (12:53 pm)12.9 °F (11:53 pm)
Dewpoint16.6 °F27 °F (2:53 pm)-0.9 °F (11:53 pm)
Humidity66.8 %93 % (3:11 pm)54 % (11:53 pm)
Barometer30.09 in30.41 in (11:53 pm)29.96 in (3:53 am)
Wind Speed15.8 mph25.3 mph (4:53 pm)
Wind Gust39.1 mph (4:53 pm)
Weather ElementAverage
Visibility7 mi
Wind DirectionWNW (282.7 °)

Weather ElementTotal
Precipitation0.01 in
Heating Degree Days42 (Base 65)
Averaged from 30 records on January 31, 2013
WEATHER CONDITIONS BREAKOUT
WIND DIRECTION BREAKOUT
WEATHER BY HOUR - JANUARY 31, 2013
[ °C ]   °F
Local TimeTemperatureDewpointHumidityBarometerVisibilityWind DirectionWind SpeedGust SpeedPrecipitationEventsConditions
1:53 AM28.0 °F14.0 °F56 %29.97 in10.0 miWNW (290°)18.4 mph26.5 mphOvercast
2:53 AM28.0 °F16.0 °F61 %29.97 in10.0 miWest (280°)12.7 mph18.4 mphOvercast
3:53 AM28.0 °F15.1 °F58 %29.96 in10.0 miWNW (290°)16.1 mph26.5 mphOvercast
4:53 AM28.0 °F16.0 °F61 %29.97 in10.0 miWest (270°)11.5 mphOvercast
5:53 AM28.0 °F17.1 °F63 %29.97 in10.0 miWest (270°)10.4 mphOvercast
6:53 AM27.0 °F15.1 °F61 %30.00 in10.0 miWest (260°)11.5 mph20.7 mphOvercast
7:53 AM27.0 °F16.0 °F63 %30.02 in10.0 miWSW (240°)8.1 mphOvercast
8:53 AM28.9 °F16.0 °F58 %30.04 in10.0 miWSW (240°)11.5 mph16.1 mphOvercast
9:53 AM28.9 °F16.0 °F58 %30.06 in10.0 miWSW (240°)13.8 mph19.6 mphOvercast
10:53 AM32.0 °F18.0 °F56 %30.06 in10.0 miWSW (250°)12.7 mph18.4 mphMostly Cloudy
11:53 AM32.0 °F18.0 °F56 %30.05 in10.0 miWest (260°)15.0 mph21.9 mphOvercast
12:53 PM33.1 °F19.0 °F56 %30.03 in10.0 miWest (280°)15.0 mph20.7 mphOvercast
2:16 PM30.2 °F23.0 °F75 %30.03 in3.0 miWest (270°)15.0 mph21.9 mph0.00 inSnowLight Snow
2:19 PM30.2 °F23.0 °F75 %30.03 in1.0 miWest (260°)16.1 mph23.0 mph0.00 inSnowSnow
2:40 PM30.2 °F26.6 °F86 %30.04 in0.5 miWest (280°)12.7 mph19.6 mph0.00 inFog-SnowSnow
2:48 PM30.2 °F26.6 °F86 %30.04 in0.5 miWest (280°)11.5 mph0.00 inSnowLight Snow
2:53 PM30.0 °F27.0 °F88 %30.06 in0.5 miWNW (290°)10.4 mph0.00 inSnowLight Snow
3:02 PM30.2 °F26.6 °F86 %30.05 in0.5 miWNW (290°)16.1 mph20.7 mph0.00 inSnowSnow
3:11 PM28.4 °F26.6 °F93 %30.05 in0.2 miWNW (290°)10.4 mph21.9 mph0.00 inSnowSnow
3:32 PM28.4 °F23.0 °F80 %30.06 in0.2 miWNW (290°)15.0 mph23.0 mph0.00 inSnowHeavy Snow
3:53 PM27.0 °F21.0 °F78 %30.10 in0.2 miNW (310°)24.2 mph28.8 mph0.01 inSnowHeavy Snow
3:57 PM26.6 °F19.4 °F74 %30.08 in3.0 miNW (310°)20.7 mph28.8 mph0.00 inSnowLight Snow
4:13 PM26.6 °F17.6 °F69 %30.09 in10.0 miWNW (300°)19.6 mph28.8 mph0.00 inOvercast
4:53 PM24.1 °F12.0 °F60 %30.15 in10.0 miNW (310°)25.3 mph39.1 mph0.00 inOvercast
5:53 PM21.0 °F10.0 °F63 %30.20 in10.0 miNW (320°)25.3 mph32.2 mphScattered Clouds
6:53 PM19.0 °F7.0 °F59 %30.25 in10.0 miNW (320°)20.7 mph28.8 mphClear
7:53 PM19.0 °F7.0 °F59 %30.27 in10.0 miWNW (290°)16.1 mph27.6 mphMostly Cloudy
8:53 PM17.1 °F3.9 °F56 %30.32 in10.0 miNW (310°)24.2 mph29.9 mphMostly Cloudy
10:53 PM14.0 °F1.0 °F56 %30.39 in10.0 miWNW (300°)15.0 mph21.9 mphClear
11:53 PM12.9 °F-0.9 °F54 %30.41 in10.0 miWNW (290°)18.4 mphClear
Hourly data recorded from KCPS, located miles away from St. Louis - Gateway Arch, Missouri







STORIES FROM OUR PARTNERS